TimeEDT,TemperatureF,Dew PointF,Humidity,Sea Level PressureIn,VisibilityMPH,Wind Direction,Wind SpeedMPH,Gust SpeedMPH,PrecipitationIn,Events,Conditions,WindDirDegrees,DateUTC
12:51 AM,37.9,36.0,93,30.12,10.0,SSE,5.8,-,N/A,,Clear,150,2013-03-12 04:51:00
1:51 AM,39.2,37.4,93,30.11,10.0,SSE,6.9,-,N/A,,Clear,160,2013-03-12 05:51:00
2:18 AM,39.2,37.4,93,30.10,10.0,SSE,8.1,-,N/A,,Partly Cloudy,150,2013-03-12 06:18:00
2:34 AM,39.2,37.4,93,30.09,10.0,SSE,8.1,-,N/A,,Mostly Cloudy,150,2013-03-12 06:34:00
2:51 AM,39.9,37.9,93,30.10,9.0,SSE,8.1,-,N/A,,Overcast,150,2013-03-12 06:51:00
3:51 AM,41.0,39.0,93,30.09,6.0,SSE,4.6,-,N/A,,Overcast,160,2013-03-12 07:51:00
4:14 AM,39.2,39.2,100,30.06,2.0,SE,3.5,-,N/A,,Overcast,130,2013-03-12 08:14:00
4:27 AM,39.2,39.2,100,30.06,2.0,Calm,Calm,-,N/A,,Overcast,0,2013-03-12 08:27:00
4:38 AM,41.0,39.2,93,30.06,1.8,SE,4.6,-,N/A,,Overcast,140,2013-03-12 08:38:00
4:51 AM,41.0,39.9,96,30.06,1.8,SE,5.8,-,N/A,,Overcast,130,2013-03-12 08:51:00
5:02 AM,41.0,41.0,100,30.04,3.0,SSE,6.9,-,N/A,,Overcast,150,2013-03-12 09:02:00
5:51 AM,41.0,41.0,100,30.06,7.0,South,4.6,-,N/A,,Overcast,170,2013-03-12 09:51:00
6:51 AM,41.0,39.9,96,30.06,5.0,ESE,3.5,-,N/A,,Overcast,120,2013-03-12 10:51:00
7:07 AM,39.2,39.2,100,30.04,1.8,East,4.6,-,N/A,,Overcast,90,2013-03-12 11:07:00
7:29 AM,39.2,39.2,100,30.04,0.8,East,4.6,-,N/A,,Overcast,80,2013-03-12 11:29:00
7:51 AM,39.9,39.9,100,30.04,0.5,East,4.6,-,N/A,Fog,Fog,90,2013-03-12 11:51:00
8:51 AM,41.0,41.0,100,30.03,0.5,ESE,4.6,-,N/A,Fog,Fog,110,2013-03-12 12:51:00
9:13 AM,41.0,41.0,100,30.02,1.2,ESE,4.6,-,0.00,Rain,Light Rain,110,2013-03-12 13:13:00
9:33 AM,42.8,42.8,100,30.02,1.8,Calm,Calm,-,0.01,Rain,Light Rain,0,2013-03-12 13:33:00
9:51 AM,42.1,42.1,100,30.03,2.5,Calm,Calm,-,0.02,Rain,Light Rain,0,2013-03-12 13:51:00
9:58 AM,42.8,42.8,100,30.02,4.0,Variable,3.5,-,0.00,Rain,Light Rain,0,2013-03-12 13:58:00
10:19 AM,42.8,42.8,100,30.01,2.5,SE,5.8,-,0.01,Rain,Light Rain,130,2013-03-12 14:19:00
10:27 AM,42.8,42.8,100,30.00,5.0,SE,3.5,-,0.01,,Overcast,130,2013-03-12 14:27:00
10:51 AM,44.1,43.0,96,30.01,3.0,Variable,6.9,-,0.01,,Overcast,0,2013-03-12 14:51:00
11:51 AM,45.0,44.1,97,29.98,4.0,SSE,6.9,-,0.00,Rain,Light Rain,150,2013-03-12 15:51:00
12:51 PM,46.9,46.0,97,29.95,6.0,SE,6.9,-,0.00,Rain,Light Rain,140,2013-03-12 16:51:00
1:27 PM,48.2,46.4,93,29.93,9.0,SE,6.9,-,0.00,,Overcast,130,2013-03-12 17:27:00
1:51 PM,48.0,46.0,93,29.93,9.0,ESE,5.8,-,0.00,,Overcast,120,2013-03-12 17:51:00
2:14 PM,48.2,46.4,93,29.90,8.0,SE,5.8,-,0.00,Rain,Light Rain,130,2013-03-12 18:14:00
2:51 PM,48.9,46.9,93,29.89,7.0,SE,8.1,-,0.00,Rain,Light Rain,130,2013-03-12 18:51:00
3:38 PM,48.2,46.4,93,29.86,4.0,SE,4.6,-,0.03,Rain,Light Rain,140,2013-03-12 19:38:00
3:51 PM,48.0,46.9,96,29.86,4.0,ESE,5.8,-,0.04,Rain,Light Rain,120,2013-03-12 19:51:00
4:19 PM,48.2,48.2,100,29.84,2.0,SE,8.1,-,0.01,Rain,Light Rain,140,2013-03-12 20:19:00
4:31 PM,48.2,48.2,100,29.83,3.0,ESE,11.5,-,0.02,Rain,Light Rain,120,2013-03-12 20:31:00
4:40 PM,48.2,48.2,100,29.83,2.5,ESE,9.2,-,0.02,Rain,Light Rain,120,2013-03-12 20:40:00
4:48 PM,48.2,48.2,100,29.82,4.0,ESE,8.1,-,0.03,Rain,Light Rain,120,2013-03-12 20:48:00
4:51 PM,48.9,48.0,97,29.83,4.0,SE,9.2,16.1,0.03,Rain,Light Rain,140,2013-03-12 20:51:00
5:09 PM,48.2,48.2,100,29.81,2.5,South,6.9,-,0.02,Rain,Light Rain,180,2013-03-12 21:09:00
5:19 PM,48.2,48.2,100,29.81,3.0,SE,5.8,-,0.03,Rain,Light Rain,140,2013-03-12 21:19:00
5:32 PM,48.2,48.2,100,29.80,2.5,SSE,5.8,-,0.05,Rain,Light Rain,150,2013-03-12 21:32:00
5:51 PM,48.0,46.9,96,29.80,4.0,SE,6.9,-,0.07,Rain,Light Rain,140,2013-03-12 21:51:00
6:26 PM,48.2,46.4,93,29.77,2.5,SE,5.8,-,0.04,Rain,Rain,140,2013-03-12 22:26:00
6:44 PM,48.2,46.4,93,29.77,3.0,SE,4.6,-,0.07,Rain,Rain,130,2013-03-12 22:44:00
6:51 PM,48.0,46.9,96,29.78,4.0,SE,6.9,-,0.09,Rain,Rain,130,2013-03-12 22:51:00
9:51 PM,48.9,48.9,100,29.71,4.0,SSE,9.2,-,0.02,,Overcast,150,2013-03-13 01:51:00
10:31 PM,48.2,48.2,100,29.71,2.5,South,9.2,-,N/A,,Overcast,180,2013-03-13 02:31:00
10:39 PM,48.2,48.2,100,29.70,1.8,South,9.2,-,N/A,,Overcast,170,2013-03-13 02:39:00
10:41 PM,48.2,48.2,100,29.70,4.0,South,8.1,-,N/A,,Overcast,170,2013-03-13 02:41:00
10:51 PM,48.9,48.9,100,29.71,8.0,SSE,6.9,-,N/A,,Overcast,160,2013-03-13 02:51:00
11:10 PM,46.4,46.4,100,29.70,1.8,South,8.1,-,N/A,,Overcast,170,2013-03-13 03:10:00
11:16 PM,46.4,46.4,100,29.71,1.0,South,6.9,-,N/A,,Overcast,170,2013-03-13 03:16:00
11:32 PM,48.2,46.4,93,29.71,1.2,South,6.9,-,N/A,,Overcast,190,2013-03-13 03:32:00
11:35 PM,48.2,48.2,100,29.71,1.5,South,8.1,-,N/A,,Overcast,190,2013-03-13 03:35:00
11:39 PM,48.2,48.2,100,29.71,3.0,South,8.1,-,N/A,,Overcast,190,2013-03-13 03:39:00
11:48 PM,48.2,48.2,100,29.72,10.0,WSW,3.5,-,N/A,,Overcast,250,2013-03-13 03:48:00
11:51 PM,48.0,48.0,100,29.73,10.0,West,4.6,-,N/A,,Overcast,260,2013-03-13 03:51:00